Torna al catalogo

CZ-6A DEB

AttivoPO
NORAD 60692·DEBRIS·🇨🇳 China

Lanciato Aug 6, 2024 da Taiyuan Satellite Launch Center

Loading…

Prossimi Passaggi (prossime 24 ore)

TLE

AggiornatoSource: Space-Track

Epoca: Sep 14, 2026, 10:35 UTC

1 60692U 24140CV  26257.44127036  .00001763  00000-0  49947-3 0  9996
2 60692  88.9882 261.1577 0128187  76.5007 285.0440 14.40362796110107

Traccia CZ-6A DEB in tempo reale con AllMySat

Download on the App Store